Notices

What's New in latest Release from April 7th, 2021:

- Updated Glossary, including Speed of Maximum Gust, and Total Hourly Precipitation

- Updated national and regional climate services offices contacts and prices information

- Addition of station inventory lists for 1981-2010, 1971-2000, and 1961-1990 Normals.

If you haven't already, please take our survey and provide feedback about our website: https://eccc.sondage-survey.ca/f/LanguageSelection.aspx?s=442ca660-fcf1-47c0-95a9-59707d6fd709

Hourly Data Report for April 21, 2020

MIRAMICHI RCS
NEW BRUNSWICK
Current Station Operator: ECCC - MSC

47°00'34.000" N
65°27'54.000" W
33.00 m
8100989
71744
ACQ

Download Data

Hourly Data (April 2020)
Hourly Data Report for April 21, 2020
TIME
LST
Temp Definition
°C
Dew Point Definition
°C
Rel Hum Definition
%
Precip. Amount Definition
mm

Wind Dir Definition
10's deg

Wind Spd Definition
km/h
Visibility Definition
km
Stn Press Definition
kPa
Hmdx Definition


Wind Chill Definition


Weather Definition


00:00 -2.4 -9.5 58 LegendMM 34 2   100.00   -3 LegendNANA
01:00 -2.8 -10.4 56 LegendMM 34 3   99.97   -4 LegendNANA
02:00 -4.2 -9.9 64 LegendMM 29 5   99.99   -6 LegendNANA
03:00 -3.7 -11.8 54 LegendMM 32 9   99.97   -7 LegendNANA
04:00 -3.9 -12.1 53 LegendMM 31 10   99.97   -8 LegendNANA
05:00 -3.5 -12.0 52 LegendMM 32 7   99.98   -6 LegendNANA
06:00 -3.7 -10.9 57 LegendMM 5 4   100.03   -5 LegendNANA
07:00 -2.1 -10.6 52 LegendMM 30 2   100.06   -3 LegendNANA
08:00 -0.7 -9.7 50 LegendMM 32 5   100.05   -2 LegendNANA
09:00 1.6 -11.0 39 LegendMM 24 3   100.02     LegendNANA
10:00 3.6 -11.1 33 LegendMM 23 6   99.99     LegendNANA
11:00 5.1 -10.3 32 LegendMM 26 8   99.95     LegendNANA
12:00 6.4 -10.9 28 LegendMM 22 12   99.91     LegendNANA
13:00 7.9 -11.2 25 LegendMM 24 13   99.84     LegendNANA
14:00 9.7 -11.6 21 LegendMM 19 13   99.75     LegendNANA
15:00 10.7 -12.0 19 LegendMM 19 14   99.67     LegendNANA
16:00 11.4 -12.0 18 LegendMM 21 18   99.63     LegendNANA
17:00 11.4 -15.2 14 LegendMM 18 13   99.60     LegendNANA
18:00 10.8 -11.1 20 LegendMM 18 10   99.59     LegendNANA
19:00 6.9 -3.9 46 LegendMM 12 12   99.61     LegendNANA
20:00 5.5 -5.0 47 LegendMM 14 12   99.66     LegendNANA
21:00 6.9 -11.0 26 LegendMM 19 16   99.66     LegendNANA
22:00 5.7 -10.5 30 LegendMM 18 10   99.54     LegendNANA
23:00 5.2 -10.3 32 LegendMM 14 10   99.49     LegendNANA

Notes on Data Quality.

Legend

  • E = Estimated
  • M = Missing
  • NA = Not Available*
  • [empty] = Indicates an unobserved value
Date modified: